Location: Härggis
(46.9540°N, 8.4897°E)
Time: 07:35:17
(UTC+00:00)

USA 306 - Visible Passes

Search period start: 06 October 2022 00:00
Search period end: 16 October 2022 00:00
Orbit: 540 x 544 km, 54.0° (Epoch: 02 October)

Date Brightness Start Highest point End Pass type
(mag) Time Alt. Az. Time Alt. Az. Time Alt. Az.
06 Oct 4.4 02:52:39 30° NNE 02:52:39 30° NNE 02:55:31 10° NE visible
06 Oct 4.1 04:28:08 10° NW 04:31:50 33° N 04:35:35 10° ENE visible
07 Oct 4.7 02:44:51 27° NNE 02:44:51 27° NNE 02:47:24 10° ENE visible
07 Oct 4.0 04:20:20 12° NW 04:23:45 36° NNE 04:27:33 10° E visible
08 Oct 4.9 02:37:03 24° NNE 02:37:03 24° NNE 02:39:16 10° ENE visible
08 Oct 3.9 04:12:32 15° NW 04:15:37 39° NNE 04:19:29 10° E visible
09 Oct 5.2 02:29:15 21° NE 02:29:15 21° NE 02:31:06 10° ENE visible
09 Oct 3.7 04:04:44 18° NW 04:07:27 43° NNE 04:11:22 10° E visible
10 Oct 5.4 02:21:28 18° NE 02:21:28 18° NE 02:22:54 10° ENE visible
10 Oct 3.5 03:56:57 23° NW 03:59:13 48° NNE 04:03:11 10° E visible
11 Oct 5.7 02:13:42 16° ENE 02:13:42 16° ENE 02:14:42 10° ENE visible
11 Oct 3.3 03:49:11 30° NW 03:50:56 55° NNE 03:54:57 10° ESE visible
12 Oct 5.9 02:05:58 13° ENE 02:05:58 13° ENE 02:06:28 10° ENE visible
12 Oct 3.1 03:41:28 43° NW 03:42:36 64° NNE 03:46:40 10° ESE visible
13 Oct 2.8 03:33:49 68° NNW 03:34:13 76° NNE 03:38:18 10° ESE visible
13 Oct 4.2 05:09:56 10° W 05:13:08 22° SW 05:16:20 10° S visible
14 Oct 2.9 03:26:15 69° ESE 03:26:15 69° ESE 03:29:52 10° ESE visible
14 Oct 4.4 05:01:47 10° W 05:04:35 18° SW 05:07:22 10° S visible
15 Oct 3.9 03:18:46 38° SE 03:18:46 38° SE 03:21:22 10° SE visible
15 Oct 4.7 04:54:16 12° WSW 04:55:58 14° SW 04:58:10 10° SSW visible
